Regional Weather Roundup
Issued by NWS Newport/Morehead, NC

Current Version | Previous Version | Text Only | Print | Product List | Glossary Off
Versions: 1 2 3 4 5 6 7 8 9 10 11 12 13 14 15 16 17 18 19 20 21 22 23 24 25 26 27 28 29 30 31 32 33 34 35 36 37 38 39 40 41 42 43 44 45 46 47 48 49 50
000 ASUS42 KMHX 302222 RWRMHX WEATHER ROUNDUP FOR EASTERN NORTH CAROLINA NATIONAL WEATHER SERVICE NEWPORT/MOREHEAD CITY NC 600 PM EDT SAT AUG 30 2014 NOTE: "FAIR" INDICATES FEW OR NO CLOUDS BELOW 12,000 FEET WITH NO SIGNIFICANT WEATHER AND/OR OBSTRUCTIONS TO VISIBILITY NCZ015>017-031-032-045>047-102-103-302300- NORTH COAST CITY SKY/WX TMP DP RH WIND PRES REMARKS EDENTON SUNNY 81 72 74 SE5 30.15S ELIZABETH CITY SUNNY 82 74 76 E12 30.16S KITTY HAWK CLEAR 80 74 80 SE6 30.15S MANTEO SUNNY 81 74 77 S7 30.16F $$ NCZ045>047-081-094-103-104-302300- CENTRAL COAST CITY SKY/WX TMP DP RH WIND PRES REMARKS FRISCO NOT AVBL SWANQUARTER N/A 86 N/A N/A SE6 30.12S $$ NCZ095-097-098-100-101-302300- SOUTHERN COAST CITY SKY/WX TMP DP RH WIND PRES REMARKS BEAUFORT SUNNY 83 74 74 S8 30.16S CEDAR ISLAND N/A 84 N/A N/A SE7 30.21S JACKSONVILLE MOSUNNY 84 70 62 S8 30.14F NEWPORT NOT AVBL PINEY ISLAND CLEAR 86 75 69 S9 30.15S WILMINGTON MOSUNNY 84 71 65 SE10 30.14F $$ NCZ011>013-027>030-043-044-078>080-089-090>093-098-302300- COASTAL PLAIN CITY SKY/WX TMP DP RH WIND PRES REMARKS AHOSKIE SUNNY 84 74 71 E3 30.14S CLINTON MOSUNNY 85 74 71 SE5 30.13S ELIZABETHTOWN MOSUNNY 84 72 68 S3 30.13F GOLDSBORO SUNNY 85 73 65 SE6 30.11F GREENVILLE PTSUNNY 88 72 58 S9G16 30.14F HAVELOCK SUNNY 86 71 60 S7 30.16S KENANSVILLE PTSUNNY 84 72 67 SE3 30.14F KINSTON MOSUNNY 82 72 69 S6 30.14F NEW BERN MOSUNNY 87 72 60 S7 30.15F RICHLANDS MOSUNNY 86 70 58 S7 30.14S ROANOKE RAPIDS NOT AVBL ROCKY MOUNT MOSUNNY 88 72 58 S5 30.13F WASHINGTON SUNNY 86 71 61 S6 30.14F WHITEVILLE PTSUNNY 85 73 65 SE5 30.13S $$ AMZ130-135-150-152-154-156-158-170-250-252-270-ANZ085-086-088-633-658-670-302300- MARINE OBSERVATIONS STATION/POSITION TIME TEMP WIND PRES WAVE SWELL AIR SEA DIR/SP/G HT/PER HT/PER (UTC) (F) (DEG/KT/KT) (MB) (FT/S) (FT/S) CHESAPEAKE LIGHT 2200 76 130/ 16/ 17 1021.9 BUOY 44014 2200 78 78 110/ 8/ 10 1021.6 2/ 8 2/ 8 DUCK 2200 80 79 130/ 13/ 14 1020.6 2E DUCK 2200 N/A 3/ 7 OREGON INLET 2200 81 78 120/ 6/ 11 1021.3 BUOY 44095 2200 78 N/A 3/ 8 20E OREGON INLET NOT AVBL HATTERAS CG 2200 82 82 160/ 6/ 8 1022.0 DIAMOND BUOY 2200 81 160/ 8/ 10 1021.6 3/ 8 3/ 8 CAPE LOOKOUT 2200 81 160/ 5/ 6 1021.2 BEAUFORT LAB 2200 83 82 170/ 5/ 7 1020.7 30 SE NEW RIVER 2200 82 83 150/ 6/ 8 1021.4 3/ 8 3/ 8 5 SE WRIGHTSVILL 2200 79 82 140/ 8/ 12 N/A BUOY 41002 2108 82 83 140/ 10/ 12 1021.7 3/ 8 3/ 8 BUOY 41004 2200 83 84 100/ 10/ 12 1019.4 2/ 9 2/ 9 $$

USA.gov is the U.S. government's official web portal to all federal, state and local government web resources and services.